Time,TemperatureF,DewpointF,PressureIn,WindDirection,WindDirectionDegrees,WindSpeedMPH,WindSpeedGustMPH,Humidity,HourlyPrecipIn,Conditions,Clouds,dailyrainin,SolarRadiationWatts/m^2,SoftwareType,DateUTC
2013-03-12 00:22:00,25.0,24.0,-100.00,NW,313,27.0,35.0,94,0.00,,,-99.99,0.000000,,2013-03-12 05:22:00,
2013-03-12 00:32:00,25.0,24.0,-100.00,NW,313,27.0,35.0,94,0.00,,,-99.99,0.000000,,2013-03-12 05:32:00,
2013-03-12 00:42:00,25.0,24.0,-100.00,NW,313,27.0,35.0,94,0.00,,,-99.99,0.000000,,2013-03-12 05:42:00,
2013-03-12 00:52:00,25.0,24.0,-100.00,NW,313,27.0,35.0,94,0.00,,,-99.99,0.000000,,2013-03-12 05:52:00,
2013-03-12 01:22:00,24.0,23.0,-100.00,NW,312,25.0,33.0,95,0.00,,,-99.99,0.000000,,2013-03-12 06:22:00,
2013-03-12 01:32:00,24.0,23.0,-100.00,NW,312,25.0,33.0,95,0.00,,,-99.99,0.000000,,2013-03-12 06:32:00,
2013-03-12 01:42:00,24.0,23.0,-100.00,NW,312,25.0,33.0,95,0.00,,,-99.99,0.000000,,2013-03-12 06:42:00,
2013-03-12 01:52:00,24.0,23.0,-100.00,NW,312,25.0,33.0,95,0.00,,,-99.99,0.000000,,2013-03-12 06:52:00,
2013-03-12 02:22:00,24.0,23.0,-100.00,NW,314,19.0,29.0,97,0.00,,,-99.99,0.000000,,2013-03-12 07:22:00,
2013-03-12 02:32:00,24.0,23.0,-100.00,NW,314,19.0,29.0,97,0.00,,,-99.99,0.000000,,2013-03-12 07:32:00,
2013-03-12 02:42:00,24.0,23.0,-100.00,NW,314,19.0,29.0,97,0.00,,,-99.99,0.000000,,2013-03-12 07:42:00,
2013-03-12 02:52:00,24.0,23.0,-100.00,NW,314,19.0,29.0,97,0.00,,,-99.99,0.000000,,2013-03-12 07:52:00,
2013-03-12 03:22:00,24.0,24.0,-100.00,NW,316,19.0,25.0,100,0.00,,,-99.99,0.000000,,2013-03-12 08:22:00,
2013-03-12 03:33:00,24.0,24.0,-100.00,NW,316,19.0,25.0,100,0.00,,,-99.99,0.000000,,2013-03-12 08:33:00,
2013-03-12 03:42:00,24.0,24.0,-100.00,NW,316,19.0,25.0,100,0.00,,,-99.99,0.000000,,2013-03-12 08:42:00,
2013-03-12 03:52:00,24.0,24.0,-100.00,NW,316,19.0,25.0,100,0.00,,,-99.99,0.000000,,2013-03-12 08:52:00,
2013-03-12 04:22:00,21.0,21.0,-100.00,North,353,17.0,23.0,100,0.00,,,-99.99,0.000000,,2013-03-12 09:22:00,
2013-03-12 04:32:00,21.0,21.0,-100.00,North,353,17.0,23.0,100,0.00,,,-99.99,0.000000,,2013-03-12 09:32:00,
2013-03-12 04:42:00,21.0,21.0,-100.00,North,353,17.0,23.0,100,0.00,,,-99.99,0.000000,,2013-03-12 09:42:00,
2013-03-12 04:52:00,21.0,21.0,-100.00,North,353,17.0,23.0,100,0.00,,,-99.99,0.000000,,2013-03-12 09:52:00,
2013-03-12 05:22:00,18.0,18.0,-100.00,North,350,18.0,24.0,100,0.00,,,0.00,0.000000,,2013-03-12 10:22:00,
2013-03-12 05:32:00,18.0,18.0,-100.00,North,350,18.0,24.0,100,0.00,,,0.00,0.000000,,2013-03-12 10:32:00,
2013-03-12 05:52:00,18.0,18.0,-100.00,North,350,18.0,24.0,100,0.00,,,0.00,0.000000,,2013-03-12 10:52:00,
2013-03-12 06:22:00,16.0,16.0,-100.00,North,2,12.0,21.0,98,0.00,,,0.00,0.000000,,2013-03-12 11:22:00,
2013-03-12 06:32:00,16.0,16.0,-100.00,North,2,12.0,21.0,98,0.00,,,0.00,0.000000,,2013-03-12 11:32:00,
2013-03-12 06:42:00,16.0,16.0,-100.00,North,2,12.0,21.0,98,0.00,,,0.00,0.000000,,2013-03-12 11:42:00,
2013-03-12 06:52:00,16.0,16.0,-100.00,North,2,12.0,21.0,98,0.00,,,0.00,0.000000,,2013-03-12 11:52:00,
2013-03-12 07:22:00,15.0,14.0,-100.00,North,356,16.0,21.0,96,0.00,,,-99.99,0.000000,,2013-03-12 12:22:00,
2013-03-12 07:32:00,15.0,14.0,-100.00,North,356,16.0,21.0,96,0.00,,,-99.99,0.000000,,2013-03-12 12:32:00,
2013-03-12 07:42:00,15.0,14.0,-100.00,North,356,16.0,21.0,96,0.00,,,-99.99,0.000000,,2013-03-12 12:42:00,
2013-03-12 07:52:00,15.0,14.0,-100.00,North,356,16.0,21.0,96,0.00,,,-99.99,0.000000,,2013-03-12 12:52:00,
2013-03-12 08:22:00,15.0,14.0,-100.00,North,351,21.0,29.0,96,0.00,,,0.00,1.000000,,2013-03-12 13:22:00,
2013-03-12 08:32:00,15.0,14.0,-100.00,North,351,21.0,29.0,96,0.00,,,0.00,1.000000,,2013-03-12 13:32:00,
2013-03-12 08:42:00,15.0,14.0,-100.00,North,351,21.0,29.0,96,0.00,,,0.00,1.000000,,2013-03-12 13:42:00,
2013-03-12 08:52:00,15.0,14.0,-100.00,North,351,21.0,29.0,96,0.00,,,0.00,1.000000,,2013-03-12 13:52:00,
2013-03-12 09:22:00,14.0,13.0,-100.00,NNW,340,18.0,27.0,94,0.00,,,-99.99,54.000000,,2013-03-12 14:22:00,
2013-03-12 09:33:00,14.0,13.0,-100.00,NNW,340,18.0,27.0,94,0.00,,,-99.99,54.000000,,2013-03-12 14:33:00,
2013-03-12 09:42:00,14.0,13.0,-100.00,NNW,340,18.0,27.0,94,0.00,,,-99.99,54.000000,,2013-03-12 14:42:00,
2013-03-12 09:52:00,14.0,13.0,-100.00,NNW,340,18.0,27.0,94,0.00,,,-99.99,54.000000,,2013-03-12 14:52:00,
2013-03-12 10:22:00,14.0,12.0,-100.00,NNW,328,22.0,26.0,92,0.00,,,0.00,164.000000,,2013-03-12 15:22:00,
2013-03-12 10:32:00,14.0,12.0,-100.00,NNW,328,22.0,26.0,92,0.00,,,0.00,164.000000,,2013-03-12 15:32:00,
2013-03-12 10:42:00,14.0,12.0,-100.00,NNW,328,22.0,26.0,92,0.00,,,0.00,164.000000,,2013-03-12 15:42:00,
2013-03-12 10:52:00,14.0,12.0,-100.00,NNW,328,22.0,26.0,92,0.00,,,0.00,164.000000,,2013-03-12 15:52:00,
2013-03-12 11:22:00,16.0,13.0,-100.00,NNW,331,21.0,26.0,87,0.00,,,0.00,446.000000,,2013-03-12 16:22:00,
2013-03-12 11:33:00,16.0,13.0,-100.00,NNW,331,21.0,26.0,87,0.00,,,0.00,446.000000,,2013-03-12 16:33:00,
2013-03-12 11:43:00,16.0,13.0,-100.00,NNW,331,21.0,26.0,87,0.00,,,0.00,446.000000,,2013-03-12 16:43:00,
2013-03-12 11:52:00,16.0,13.0,-100.00,NNW,331,21.0,26.0,87,0.00,,,0.00,446.000000,,2013-03-12 16:52:00,
2013-03-12 12:22:00,17.0,14.0,-100.00,NNW,327,22.0,25.0,86,0.00,,,0.00,644.000000,,2013-03-12 17:22:00,
2013-03-12 12:34:00,17.0,14.0,-100.00,NNW,327,22.0,25.0,86,0.00,,,0.00,644.000000,,2013-03-12 17:34:00,
2013-03-12 12:43:00,17.0,14.0,-100.00,NNW,327,22.0,25.0,86,0.00,,,0.00,644.000000,,2013-03-12 17:43:00,
2013-03-12 12:53:00,17.0,14.0,-100.00,NNW,327,22.0,25.0,86,0.00,,,0.00,644.000000,,2013-03-12 17:53:00,
2013-03-12 13:23:00,18.0,15.0,-100.00,NW,324,23.0,30.0,87,0.00,,,0.00,708.000000,,2013-03-12 18:23:00,
2013-03-12 13:33:00,18.0,15.0,-100.00,NW,324,23.0,30.0,87,0.00,,,0.00,708.000000,,2013-03-12 18:33:00,
2013-03-12 13:42:00,18.0,15.0,-100.00,NW,324,23.0,30.0,87,0.00,,,0.00,708.000000,,2013-03-12 18:42:00,
2013-03-12 13:53:00,18.0,15.0,-100.00,NW,324,23.0,30.0,87,0.00,,,0.00,708.000000,,2013-03-12 18:53:00,
2013-03-12 14:23:00,20.0,17.0,-100.00,NNW,336,26.0,32.0,87,0.00,,,0.00,610.000000,,2013-03-12 19:23:00,
2013-03-12 14:33:00,20.0,17.0,-100.00,NNW,336,26.0,32.0,87,0.00,,,0.00,610.000000,,2013-03-12 19:33:00,
2013-03-12 14:43:00,20.0,17.0,-100.00,NNW,336,26.0,32.0,87,0.00,,,0.00,610.000000,,2013-03-12 19:43:00,
2013-03-12 14:53:00,20.0,17.0,-100.00,NNW,336,26.0,32.0,87,0.00,,,0.00,610.000000,,2013-03-12 19:53:00,
2013-03-12 15:23:00,20.0,16.0,-100.00,NNW,337,26.0,34.0,83,0.00,,,0.00,565.000000,,2013-03-12 20:23:00,
2013-03-12 15:32:00,20.0,16.0,-100.00,NNW,337,26.0,34.0,83,0.00,,,0.00,565.000000,,2013-03-12 20:32:00,
2013-03-12 15:42:00,20.0,16.0,-100.00,NNW,337,26.0,34.0,83,0.00,,,0.00,565.000000,,2013-03-12 20:42:00,
2013-03-12 15:52:00,20.0,16.0,-100.00,NNW,337,26.0,34.0,83,0.00,,,0.00,565.000000,,2013-03-12 20:52:00,
2013-03-12 16:22:00,20.0,16.0,-100.00,NNW,335,27.0,32.0,84,0.00,,,0.00,460.000000,,2013-03-12 21:22:00,
2013-03-12 16:33:00,20.0,16.0,-100.00,NNW,335,27.0,32.0,84,0.00,,,0.00,460.000000,,2013-03-12 21:33:00,
2013-03-12 16:43:00,20.0,16.0,-100.00,NNW,335,27.0,32.0,84,0.00,,,0.00,460.000000,,2013-03-12 21:43:00,
2013-03-12 16:52:00,20.0,16.0,-100.00,NNW,335,27.0,32.0,84,0.00,,,0.00,460.000000,,2013-03-12 21:52:00,
2013-03-12 17:22:00,19.0,15.0,-100.00,NNW,337,23.0,31.0,84,0.00,,,0.00,378.000000,,2013-03-12 22:22:00,
2013-03-12 17:33:00,19.0,15.0,-100.00,NNW,337,23.0,31.0,84,0.00,,,0.00,378.000000,,2013-03-12 22:33:00,
2013-03-12 17:43:00,19.0,15.0,-100.00,NNW,337,23.0,31.0,84,0.00,,,0.00,378.000000,,2013-03-12 22:43:00,
2013-03-12 17:52:00,19.0,15.0,-100.00,NNW,337,23.0,31.0,84,0.00,,,0.00,378.000000,,2013-03-12 22:52:00,
2013-03-12 18:22:00,18.0,15.0,-100.00,NNW,335,26.0,30.0,89,0.00,,,0.00,236.000000,,2013-03-12 23:22:00,
2013-03-12 18:34:00,18.0,15.0,-100.00,NNW,335,26.0,30.0,89,0.00,,,0.00,236.000000,,2013-03-12 23:34:00,
2013-03-12 18:43:00,18.0,15.0,-100.00,NNW,335,26.0,30.0,89,0.00,,,0.00,236.000000,,2013-03-12 23:43:00,
2013-03-12 18:52:00,18.0,15.0,-100.00,NNW,335,26.0,30.0,89,0.00,,,0.00,236.000000,,2013-03-12 23:52:00,
2013-03-12 19:23:00,16.0,13.0,-100.00,NNW,334,23.0,29.0,88,0.00,,,0.00,117.000000,,2013-03-13 00:23:00,
2013-03-12 19:33:00,16.0,13.0,-100.00,NNW,334,23.0,29.0,88,0.00,,,0.00,117.000000,,2013-03-13 00:33:00,
2013-03-12 19:42:00,16.0,13.0,-100.00,NNW,334,23.0,29.0,88,0.00,,,0.00,117.000000,,2013-03-13 00:42:00,
2013-03-12 19:52:00,16.0,13.0,-100.00,NNW,334,23.0,29.0,88,0.00,,,0.00,117.000000,,2013-03-13 00:52:00,
2013-03-12 20:22:00,14.0,11.0,-100.00,NNW,335,19.0,26.0,89,0.00,,,0.00,12.000000,,2013-03-13 01:22:00,
2013-03-12 20:32:00,14.0,11.0,-100.00,NNW,335,19.0,26.0,89,0.00,,,0.00,12.000000,,2013-03-13 01:32:00,
2013-03-12 20:42:00,14.0,11.0,-100.00,NNW,335,19.0,26.0,89,0.00,,,0.00,12.000000,,2013-03-13 01:42:00,
2013-03-12 20:52:00,14.0,11.0,-100.00,NNW,335,19.0,26.0,89,0.00,,,0.00,12.000000,,2013-03-13 01:52:00,
2013-03-12 21:22:00,13.0,10.0,-100.00,NNW,335,15.0,22.0,89,0.00,,,0.00,0.000000,,2013-03-13 02:22:00,
2013-03-12 21:32:00,13.0,10.0,-100.00,NNW,335,15.0,22.0,89,0.00,,,0.00,0.000000,,2013-03-13 02:32:00,
2013-03-12 21:43:00,13.0,10.0,-100.00,NNW,335,15.0,22.0,89,0.00,,,0.00,0.000000,,2013-03-13 02:43:00,
2013-03-12 21:52:00,13.0,10.0,-100.00,NNW,335,15.0,22.0,89,0.00,,,0.00,0.000000,,2013-03-13 02:52:00,
2013-03-12 22:22:00,12.0,11.0,-100.00,NNW,335,15.0,17.0,94,0.00,,,0.00,0.000000,,2013-03-13 03:22:00,
2013-03-12 22:32:00,12.0,11.0,-100.00,NNW,335,15.0,17.0,94,0.00,,,0.00,0.000000,,2013-03-13 03:32:00,
2013-03-12 22:42:00,12.0,11.0,-100.00,NNW,335,15.0,17.0,94,0.00,,,0.00,0.000000,,2013-03-13 03:42:00,
2013-03-12 22:52:00,12.0,11.0,-100.00,NNW,335,15.0,17.0,94,0.00,,,0.00,0.000000,,2013-03-13 03:52:00,
2013-03-12 23:22:00,9.0,7.0,-100.00,NNW,335,12.0,19.0,92,0.00,,,0.00,0.000000,,2013-03-13 04:22:00,
2013-03-12 23:32:00,9.0,7.0,-100.00,NNW,335,12.0,19.0,92,0.00,,,0.00,0.000000,,2013-03-13 04:32:00,
2013-03-12 23:43:00,9.0,7.0,-100.00,NNW,335,12.0,19.0,92,0.00,,,0.00,0.000000,,2013-03-13 04:43:00,
2013-03-12 23:52:00,9.0,7.0,-100.00,NNW,335,12.0,19.0,92,0.00,,,0.00,0.000000,,2013-03-13 04:52:00,